Tracking 25378 objects as of 22-Jan-2022
HD Live streaming from Space Station
objects crossing your sky now

STARLINK-1624

Track STARLINK-1624 now!
10-day predictions
STARLINK-1624 is classified as:


NORAD ID: 46130
Int'l Code: 2020-057P
Perigee: 552.9 km
Apogee: 555.8 km
Inclination: 53.1 °
Period: 95.6 minutes
Semi major axis: 6925 km
RCS: Unknown
Launch date: August 18, 2020
Source: United States (US)
Launch site: AIR FORCE EASTERN TEST RANGE (AFETR)
aabbcc
Your satellite tracking list
Your tracking list is empty




NASA's NSSDC Master Catalog

Two Line Element Set (TLE):
1 46130U 20057P   22021.48771257  .00001208  00000-0  10001-3 0  9992
2 46130  53.0532 207.1988 0002123  81.3622 278.7607 15.06395380 80554
Source of the keplerian elements: AFSPC